Wind_Speed
10 9 10 11 13 15 15 16 12 6 8 12 12 10 10 12 9 8 10 7 7 8 7 8 9 10 10 9 8 7 7 7 7 6 5 5 6 6 5 4 5 4 3 2 2 2 3 2 2 2 3 4 3 2 1 1 2 2 2 3 4 6 6 7 8 8 9 9 9 10 11 13 13 12 14 16 15 14 14 14 13 14 13 13 14 14
11 11 12 14 14 16 17 16 11 7 9 11 11 10 9 11 9 9 9 7 4 5 6 8 9 10 9 9 8 6 8 8 8 7 6 5 5 6 5 4 4 3 2 3 2 2 3 1 4 4 4 5 4 4 2 1 1 2 2 3 4 5 5 7 9 9 10 11 10 11 13 15 14 14 16 16 16 16 16 16 16 16 16 15 16 16
11 11 14 17 15 15 16 15 12 9 10 10 9 9 9 9 10 9 8 7 5 4 7 11 8 9 9 9 8 7 8 9 8 8 8 6 6 6 5 5 4 2 3 3 2 0 1 5 7 6 6 6 6 6 5 4 3 3 3 3 4 4 5 8 10 9 10 11 11 14 15 16 16 16 16 15 16 18 18 17 18 18 18 18 17 16
10 11 16 16 14 15 15 15 14 10 10 9 9 9 9 10 11 8 7 9 6 4 8 12 7 7 8 8 8 7 7 9 10 10 10 8 8 7 6 5 4 4 2 1 2 4 7 9 9 8 8 8 8 8 7 7 6 5 5 4 3 4 5 7 8 7 7 7 8 12 12 13 15 16 17 16 17 19 19 18 18 17 18 19 18 16
10 11 15 15 14 16 15 16 16 11 9 10 10 10 10 12 10 8 10 10 6 5 10 13 8 5 6 7 7 5 7 9 10 11 11 10 9 9 8 7 6 5 4 3 4 7 9 9 10 10 10 10 10 9 8 7 6 5 5 4 3 3 4 4 5 5 5 5 6 8 7 8 12 15 16 17 18 19 19 18 18 18 18 20 19 16
11 11 15 17 16 18 16 15 16 13 9 9 11 9 10 14 10 11 15 11 7 7 11 11 7 7 6 7 7 5 8 10 9 10 11 10 10 9 9 8 8 7 6 6 7 9 10 11 12 12 12 12 12 10 8 6 6 5 5 4 3 3 3 3 3 4 4 4 5 7 8 8 10 13 15 17 19 20 19 19 19 19 18 19 19 17
9 13 16 18 18 19 18 14 17 17 9 8 11 9 7 12 11 13 15 11 7 7 10 9 6 7 8 6 7 7 10 12 10 11 11 10 10 9 9 9 8 8 8 9 10 11 12 13 13 13 14 13 13 12 10 8 7 6 6 6 5 4 3 2 1 2 3 3 4 6 8 10 11 12 14 16 19 21 21 19 17 17 17 19 19 16
10 16 17 19 18 17 15 13 16 18 10 7 13 12 8 9 11 13 13 10 6 6 9 10 7 6 8 6 7 8 11 13 11 10 10 10 11 12 12 11 11 10 9 10 10 11 13 13 13 13 13 13 13 13 13 12 10 8 6 6 5 5 3 2 2 1 1 3 4 5 7 9 11 11 12 14 15 17 19 17 16 15 16 17 17 16
12 17 19 20 18 13 13 13 15 17 11 5 11 13 10 9 9 11 10 8 7 6 9 11 9 7 8 7 8 8 10 12 11 10 10 11 12 12 12 12 11 11 11 11 11 11 13 13 13 13 13 14 14 13 12 12 12 10 8 6 6 5 4 2 1 1 2 4 5 6 7 8 8 8 9 10 10 11 14 15 15 14 13 13 13 15
11 15 18 18 15 12 13 14 16 18 10 6 9 9 8 7 6 7 8 7 7 7 10 13 12 8 7 8 8 8 8 10 9 9 9 10 11 11 11 11 10 10 10 11 11 13 14 14 14 15 15 16 15 14 13 12 12 11 9 8 8 7 5 3 1 2 3 4 4 6 7 9 7 5 6 6 6 8 10 11 13 12 11 12 12 12
11 14 16 15 13 12 12 12 16 18 10 8 10 8 7 7 6 5 7 7 7 8 10 15 14 9 7 8 6 5 6 8 9 8 9 9 10 10 9 9 10 9 9 9 11 13 14 15 15 15 15 16 16 15 15 14 13 12 11 10 9 8 7 5 4 5 6 5 5 6 8 9 6 4 4 4 4 6 8 10 11 9 9 11 12 12
12 13 13 12 12 12 12 11 11 13 10 9 10 9 8 8 6 6 6 7 9 8 9 13 11 9 8 7 6 7 6 7 8 9 10 10 10 10 8 9 9 9 9 9 10 11 13 14 15 16 16 16 15 15 15 14 13 12 12 12 10 9 9 8 7 7 8 8 7 8 8 8 5 4 5 5 6 7 8 10 9 8 8 9 11 12
11 13 13 12 11 12 13 11 9 9 9 11 11 10 10 8 7 9 9 9 9 6 7 11 10 7 4 7 9 10 9 9 9 10 10 10 10 10 9 9 9 8 9 9 9 10 11 13 15 15 15 15 15 15 15 14 13 12 12 13 11 11 11 10 9 9 9 9 9 9 9 8 6 5 6 7 8 8 8 10 10 9 9 10 13 15
10 13 16 14 10 13 14 11 9 10 11 12 11 12 11 9 9 10 10 11 9 4 6 8 10 7 6 8 10 11 10 11 11 11 11 11 10 10 9 9 9 9 10 10 9 9 11 13 14 15 14 14 14 14 14 14 13 12 12 12 12 11 11 11 10 10 9 9 10 10 10 9 8 7 7 8 9 10 10 10 12 12 13 15 17 17
11 12 14 15 11 14 16 13 11 11 11 12 11 11 11 9 9 9 9 12 11 7 7 7 7 7 7 8 11 12 11 11 11 10 10 10 9 9 9 9 10 10 9 9 9 10 12 14 14 14 14 14 15 15 15 14 14 13 12 12 12 11 11 11 11 10 10 10 10 10 10 10 10 8 8 10 11 12 13 13 13 14 15 18 20 17
13 9 13 16 11 15 17 14 13 12 10 10 10 11 11 10 9 6 3 4 7 9 7 4 2 3 6 10 12 12 11 12 11 10 10 9 8 8 9 9 9 9 8 9 9 10 12 14 14 14 14 15 15 15 16 15 15 14 14 13 13 12 12 12 12 11 11 11 11 11 11 11 10 9 10 11 11 12 14 15 14 13 13 16 19 16
11 8 16 17 11 16 19 14 13 13 9 7 9 10 5 7 8 6 2 3 6 8 6 4 4 5 6 9 11 11 11 12 11 10 9 9 9 9 9 9 8 8 9 9 9 10 12 14 14 14 14 15 15 16 16 16 16 15 14 15 15 14 14 14 13 13 12 12 12 12 11 12 11 11 11 11 11 11 12 13 13 12 13 14 15 14
9 7 15 18 13 14 17 15 15 14 9 7 10 10 4 1 6 8 6 5 8 9 5 6 9 9 7 7 10 13 12 11 11 9 9 9 9 9 9 8 8 9 9 10 10 11 12 13 14 14 14 15 15 15 15 15 15 15 15 16 16 16 16 15 15 14 13 13 12 12 12 13 13 12 11 11 11 11 11 11 10 11 12 13 14 13
9 6 12 17 15 13 11 13 14 11 9 8 9 10 6 5 7 9 8 8 10 8 6 9 11 9 8 7 12 15 13 13 12 9 8 8 8 8 8 7 8 9 9 9 9 10 12 13 14 14 14 14 14 14 15 14 15 15 15 16 16 16 16 15 15 14 14 13 12 12 12 12 13 13 11 11 11 11 11 11 10 10 11 12 13 14
9 6 8 13 13 12 10 10 11 10 8 9 9 10 8 7 7 8 7 7 10 8 7 10 10 8 6 8 14 16 14 15 13 10 8 8 8 7 7 7 7 8 8 9 9 9 11 13 13 14 13 13 13 14 14 14 14 15 15 16 16 16 16 15 15 14 14 14 12 12 12 11 11 12 11 11 11 11 10 10 10 10 11 12 12 13
8 6 7 10 10 11 11 9 11 13 12 9 9 11 10 6 5 7 5 4 7 8 7 8 8 6 3 7 14 17 15 15 13 12 10 8 8 8 7 7 7 8 8 9 8 8 10 12 13 13 13 13 13 13 14 14 14 15 15 15 16 16 16 16 15 15 15 15 14 13 13 12 10 11 12 11 10 10 10 10 10 10 11 12 12 13
7 7 8 10 10 11 11 6 6 10 13 12 9 11 12 8 7 8 6 3 5 6 7 8 8 6 4 1 10 17 15 14 14 14 12 10 9 9 8 7 8 8 9 9 8 8 10 12 13 13 13 13 13 14 15 15 15 15 15 15 16 16 17 17 16 15 15 15 15 14 13 12 11 11 12 10 8 9 9 9 9 10 10 11 12 14
3 5 9 11 10 8 6 4 1 2 9 12 11 11 12 10 9 10 8 7 6 4 4 6 6 5 4 3 8 15 13 13 14 14 13 11 10 9 8 8 9 9 9 8 8 9 11 12 12 12 13 13 13 14 15 15 15 15 15 16 17 18 19 18 16 16 16 16 16 15 14 13 12 12 12 11 9 8 8 8 9 10 10 11 12 14
1 6 9 10 9 6 6 5 2 1 6 11 10 10 11 11 11 9 7 8 8 6 6 6 6 5 4 4 9 12 12 13 13 13 14 12 9 9 9 9 9 9 9 8 8 9 10 11 12 12 12 13 13 15 15 15 15 15 15 17 17 19 20 19 17 17 17 16 17 16 15 14 13 12 13 12 10 9 8 8 9 9 10 11 12 14
4 7 9 10 9 7 6 7 6 6 8 8 6 4 5 9 11 6 4 8 8 8 9 8 5 5 6 7 10 12 14 14 12 13 14 11 9 9 8 8 8 8 8 8 8 9 10 11 11 11 12 13 14 15 15 15 15 15 16 17 18 19 20 19 19 19 18 18 18 16 16 15 14 13 13 12 11 10 9 9 9 9 9 11 12 14
3 2 4 9 12 11 11 9 7 9 9 5 5 5 2 6 10 7 6 7 7 7 9 8 4 7 8 10 12 12 15 14 12 12 12 10 10 9 8 7 8 8 8 8 8 8 9 10 11 12 13 13 14 15 15 15 15 15 16 17 17 18 19 20 20 20 20 19 19 18 17 17 16 14 14 14 13 11 10 10 10 9 9 10 11 13
4 3 4 1 5 6 6 4 3 6 10 8 8 8 5 3 3 6 7 7 6 8 7 5 11 13 11 12 13 12 13 13 12 12 12 10 9 9 8 8 8 8 8 8 7 8 8 9 10 12 13 13 14 14 14 15 15 15 16 17 17 17 18 19 20 20 20 20 20 19 19 19 17 16 16 16 15 13 12 11 11 10 10 10 11 12
4 3 6 8 8 6 5 6 5 6 9 10 10 9 6 4 2 6 7 4 7 9 6 8 17 17 14 13 13 12 12 12 11 11 11 10 9 9 9 9 9 9 8 8 7 7 8 8 10 12 13 13 14 15 15 15 15 15 15 16 16 17 17 18 19 20 20 20 21 21 21 20 18 17 17 17 16 14 13 12 11 11 10 10 11 11
4 4 4 7 11 9 7 7 8 10 11 10 10 9 7 4 3 5 3 3 3 5 5 12 16 15 14 14 12 12 11 11 11 11 10 10 10 10 10 10 9 9 9 8 8 7 7 8 9 11 12 13 14 15 15 14 15 15 15 16 16 16 16 17 18 19 19 20 21 21 21 21 20 19 19 18 18 16 15 13 12 11 11 10 11 12
1 5 5 9 12 11 9 8 10 12 13 12 11 10 8 8 8 9 7 6 7 8 11 17 18 13 12 12 12 12 11 11 11 10 10 11 10 10 10 10 9 9 9 8 8 7 7 9 10 11 12 13 13 14 14 14 14 15 15 16 16 16 16 16 17 18 19 19 20 21 21 21 21 21 20 20 20 19 17 16 13 12 11 10 11 12
1 5 7 7 9 9 8 8 9 12 14 14 13 10 9 10 10 10 9 8 10 12 14 19 18 12 8 10 13 12 10 11 11 10 11 10 9 10 10 10 9 9 9 7 7 7 7 9 10 11 11 12 13 13 13 13 13 14 14 15 15 15 15 16 17 16 17 19 20 21 22 21 21 21 21 21 20 19 19 18 15 13 11 10 10 10
3 6 5 3 5 6 5 8 11 13 15 15 13 10 8 8 8 7 6 4 4 11 15 14 11 8 8 11 13 11 11 12 12 11 10 9 8 9 10 9 9 9 9 7 6 7 7 9 10 11 11 11 12 12 13 13 13 13 14 15 15 15 14 15 17 16 17 18 19 20 22 22 22 22 22 21 21 20 19 19 17 17 14 12 12 12
6 8 6 5 5 5 5 7 8 9 10 9 8 7 6 7 9 9 8 6 6 9 9 5 7 10 12 13 13 12 12 12 11 10 9 8 9 9 9 10 10 9 8 7 6 7 7 8 9 10 11 11 11 12 12 12 12 13 13 14 14 14 14 15 16 17 17 18 18 20 21 22 22 22 22 22 21 20 20 19 19 19 18 16 14 12
8 9 6 3 4 6 8 6 3 6 8 3 2 2 3 5 9 10 10 9 8 7 6 8 12 15 13 12 13 13 12 11 10 9 8 8 8 9 10 10 10 9 9 7 7 8 8 8 9 9 10 11 11 11 11 12 12 12 12 13 13 14 15 15 16 17 18 19 19 19 20 21 21 21 22 22 21 21 20 19 19 18 17 17 15 12
9 8 5 3 4 6 7 6 6 6 3 1 1 1 4 8 13 15 14 10 9 10 13 16 16 15 13 13 13 13 14 13 12 10 9 8 8 9 10 10 9 9 8 7 7 8 8 8 9 10 10 11 12 12 12 12 13 12 12 13 13 14 15 15 15 17 19 20 19 20 21 21 21 21 22 22 21 21 20 19 19 17 16 15 15 14
9 7 5 4 5 6 6 5 5 4 2 2 3 5 8 11 13 13 11 9 8 10 14 17 16 15 15 15 13 13 15 14 12 10 9 9 9 9 9 9 9 9 8 8 7 7 8 8 8 9 10 11 12 13 13 13 13 13 13 13 14 15 16 16 16 18 20 20 20 20 20 20 21 21 22 22 21 21 21 20 18 17 16 14 13 14
7 7 7 5 3 4 5 5 4 4 4 4 5 6 6 6 5 5 6 5 5 8 12 15 17 16 15 15 15 15 14 13 11 8 8 9 9 9 10 10 9 9 10 10 9 8 8 8 9 9 10 12 12 13 13 13 13 13 14 15 16 16 17 17 16 18 20 19 19 19 19 19 20 20 21 21 22 22 21 20 18 17 15 15 14 14
3 3 5 5 2 3 6 7 5 5 4 4 7 7 4 1 2 4 7 5 4 7 11 15 16 16 16 15 15 14 10 8 8 5 6 7 8 10 12 11 10 10 10 10 10 9 9 9 9 9 10 11 12 12 13 13 14 14 15 16 17 17 18 18 17 18 20 19 18 18 18 18 18 18 20 21 21 21 21 20 19 17 16 15 15 15
5 2 3 5 4 5 7 6 5 3 2 4 9 9 5 3 3 5 5 4 5 9 11 14 16 16 16 15 13 10 6 5 6 5 6 7 9 10 11 11 10 10 10 10 10 10 10 10 10 10 10 11 12 12 12 13 14 14 15 16 17 17 18 18 18 18 19 19 18 18 18 18 17 17 19 20 20 20 20 19 19 18 17 16 16 15
5 3 2 5 6 6 5 4 4 3 3 5 10 9 6 4 4 6 4 4 9 11 11 13 15 16 15 14 10 5 3 5 8 8 9 10 11 11 11 11 11 11 10 10 10 10 10 10 11 11 11 11 11 12 12 12 13 14 15 16 16 17 18 18 17 17 18 18 18 18 18 18 17 15 16 18 19 19 19 19 18 18 18 18 17 17
4 3 1 4 6 5 4 4 4 4 3 6 8 7 5 4 4 5 2 6 12 13 12 13 14 14 13 10 7 3 4 8 12 13 12 12 11 11 11 11 11 11 11 11 11 11 11 12 12 12 13 12 12 12 12 13 14 15 16 16 17 18 17 17 16 17 17 18 18 19 19 19 20 20 18 17 18 19 20 20 20 19 19 19 19 19
4 3 2 3 4 3 3 4 5 4 4 6 7 6 4 3 2 2 4 10 15 14 13 13 13 12 10 8 8 8 11 14 16 15 13 13 12 12 12 12 12 12 11 11 12 12 12 12 13 14 14 14 14 14 14 14 15 16 16 17 18 17 17 16 16 17 17 17 18 19 19 19 22 25 24 21 19 18 19 20 20 20 19 19 19 19
1 1 4 4 2 2 5 5 3 3 5 8 9 6 1 1 3 7 10 13 14 14 14 13 11 10 11 12 13 14 15 17 16 15 14 13 12 13 12 13 13 12 12 13 13 12 12 13 14 14 15 15 15 15 15 16 16 16 17 17 17 17 17 16 16 16 17 17 17 18 19 19 21 24 25 25 22 19 18 19 19 18 19 18 17 17
4 2 3 3 2 2 4 4 1 3 7 7 5 4 5 5 8 11 12 13 13 12 11 10 10 12 14 15 16 16 16 16 16 14 13 12 12 13 13 13 13 13 13 13 13 13 13 13 14 14 15 15 15 15 15 16 17 16 17 17 16 16 17 16 16 16 17 17 17 17 17 18 20 22 24 25 24 20 18 18 17 17 18 18 17 16
4 3 3 4 4 3 4 5 3 4 7 7 5 7 10 10 10 12 13 13 12 10 8 9 12 14 15 16 17 16 15 15 15 14 13 12 13 14 14 13 13 13 13 14 13 13 13 14 14 14 15 14 15 15 15 16 17 17 17 16 15 15 16 16 16 17 17 17 17 17 16 16 18 20 22 24 25 22 18 18 18 17 17 18 18 18
5 4 3 5 8 8 8 8 7 7 9 10 9 9 11 11 11 13 14 13 12 11 10 10 13 15 15 16 16 15 14 15 15 14 13 14 15 14 14 14 14 14 14 14 13 13 13 14 14 14 14 14 14 14 15 15 16 17 16 15 14 14 15 15 16 16 16 17 17 17 17 16 16 17 19 20 21 20 19 19 19 19 19 19 18 18
3 1 3 6 8 5 4 6 7 8 10 10 10 11 11 12 12 12 12 12 12 13 13 14 15 16 16 16 15 15 16 16 15 14 13 13 14 15 15 15 15 15 15 14 13 13 13 13 13 14 14 14 14 14 14 15 16 16 16 15 14 14 15 15 15 15 16 16 16 16 17 16 15 16 18 20 20 19 18 18 19 21 22 20 19 18
4 4 5 7 6 4 6 8 9 10 11 10 10 10 11 11 12 12 12 13 14 15 17 18 18 17 16 16 17 17 17 16 16 15 13 13 15 16 15 15 15 15 14 13 12 12 12 12 13 13 13 14 14 14 14 14 15 15 16 15 15 15 15 15 15 15 15 15 15 15 16 16 16 15 16 18 20 21 21 19 18 20 21 21 21 19
4 6 6 7 9 8 8 10 10 11 10 8 9 10 10 12 14 15 15 16 17 18 19 19 19 18 18 19 19 18 17 16 17 16 15 14 16 16 15 15 14 14 13 13 12 12 12 12 12 13 13 13 13 14 14 14 14 15 16 16 16 15 15 15 15 15 15 15 15 15 15 16 16 16 16 15 16 20 23 23 21 19 19 21 24 24
5 7 7 8 9 7 7 10 10 8 8 8 9 12 12 13 15 17 18 18 18 18 18 19 20 21 21 22 21 19 16 16 17 18 17 16 16 16 15 15 14 14 13 13 12 12 12 12 12 12 12 12 12 13 14 14 15 15 15 16 16 16 15 15 15 15 16 16 15 14 15 15 15 15 16 15 14 14 18 22 24 23 21 21 23 24
2 5 6 4 5 7 11 13 9 7 9 10 11 12 13 14 16 18 19 19 19 19 20 20 20 20 19 20 21 20 18 17 18 19 17 16 16 16 15 14 14 13 12 11 11 12 11 11 11 11 11 11 12 13 14 14 14 15 15 15 16 16 16 15 15 15 15 16 15 14 13 14 15 14 15 16 15 13 12 15 19 22 22 22 22 22
Wind_Direction
185 192 200 202 197 192 193 198 204 200 179 177 183 191 181 178 179 153 129 124 178 183 163 155 128 97 82 75 67 67 73 72 78 89 105 129 143 138 135 138 142 155 165 195 196 176 230 222 70 36 23 31 32 27 14 229 227 233 247 240 239 246 241 241 243 239 241 240 239 240 238 244 246 239 233 232 231 231 231 230 229 230 229 227 228 223
190 206 203 199 199 189 189 195 192 183 181 182 189 187 181 182 168 146 135 125 168 178 142 142 123 93 84 83 73 74 80 71 73 80 80 95 118 116 105 107 128 146 183 237 226 182 227 158 83 53 40 41 45 51 36 334 277 259 264 263 259 258 250 254 254 247 248 246 241 244 247 251 250 243 239 235 233 233 229 228 230 231 231 230 227 221
196 212 202 197 198 187 184 190 181 179 187 189 193 188 184 175 143 125 125 134 170 187 156 155 133 95 86 83 77 73 80 81 80 79 74 77 94 101 85 77 85 115 173 239 267 149 39 65 75 62 51 51 56 59 51 33 3 343 326 307 293 284 277 277 276 268 262 255 248 252 254 255 252 249 247 242 240 239 232 231 233 235 238 239 232 222
195 207 199 190 188 180 177 185 185 183 191 195 193 191 185 168 155 149 138 139 164 188 162 157 141 112 106 94 83 78 92 98 95 90 82 79 85 93 94 81 65 74 104 283 356 45 49 55 64 61 59 61 61 57 49 40 26 16 3 348 324 296 288 287 288 286 282 278 276 276 270 261 257 255 254 251 249 244 237 237 238 237 238 242 238 225
201 198 185 176 178 180 177 183 190 189 191 195 197 197 183 173 173 153 138 140 148 167 166 159 150 140 130 114 102 100 109 104 100 101 90 85 87 89 95 90 78 76 74 52 44 53 58 61 61 58 58 61 58 53 49 44 35 29 13 1 349 325 321 311 305 312 310 295 291 295 286 267 261 260 260 257 254 248 238 235 238 238 239 242 241 231
205 182 171 177 184 187 184 185 192 193 189 188 201 212 184 173 163 129 139 152 153 167 179 180 180 166 142 118 121 127 117 102 96 100 89 83 86 83 82 79 79 83 81 75 64 61 64 64 64 59 54 53 50 49 50 49 48 44 37 27 13 360 352 340 314 311 314 294 282 283 275 267 264 261 259 256 256 253 243 237 238 239 241 243 243 239
193 165 174 186 185 187 189 189 191 193 197 186 191 208 189 172 159 143 156 171 174 171 179 201 222 172 154 130 128 132 116 105 98 97 90 83 80 77 76 71 69 72 75 73 64 63 64 62 62 57 52 51 49 53 54 51 51 49 50 47 40 33 15 9 360 322 315 307 291 277 267 267 267 266 267 265 263 258 249 242 234 232 239 245 245 241
177 169 182 187 184 189 192 191 188 193 207 182 173 188 193 175 163 162 176 189 184 151 163 204 239 185 166 145 133 136 117 108 104 98 92 84 78 75 75 73 67 64 65 66 61 61 61 59 59 56 55 56 55 58 58 55 54 50 50 48 45 43 33 27 31 12 334 315 302 278 262 262 266 272 277 277 273 260 245 234 223 224 236 242 240 232
170 179 184 185 187 191 195 190 180 192 208 152 158 186 194 189 180 176 188 196 182 167 177 201 220 195 164 145 145 147 123 112 111 100 86 77 74 72 71 71 70 67 64 63 60 58 56 55 55 54 56 59 57 54 54 58 58 56 56 52 50 44 29 24 36 25 340 315 307 289 276 275 276 278 281 281 276 253 236 228 224 229 236 238 240 233
172 188 184 187 194 192 195 188 174 191 201 122 144 180 188 198 195 187 201 193 175 198 199 189 200 205 162 149 162 158 132 122 118 105 90 80 75 70 64 62 63 63 61 59 57 53 50 50 50 50 50 51 48 43 42 46 48 48 45 40 43 38 19 13 30 350 320 310 304 289 283 289 293 290 285 283 265 238 224 220 222 227 234 239 244 236
167 186 188 193 201 195 189 177 174 190 185 137 158 177 181 196 194 196 214 194 181 211 202 180 194 215 179 158 156 144 134 130 130 119 105 94 83 73 63 60 61 60 59 56 54 50 47 48 48 47 48 46 42 38 37 38 38 38 31 23 25 23 9 355 348 323 314 318 311 290 281 287 293 280 270 256 230 223 205 199 206 215 229 240 245 240
165 183 191 194 206 198 176 162 172 185 177 170 181 182 183 187 186 191 198 197 202 209 184 168 189 219 197 163 137 138 136 123 128 125 112 100 87 77 67 64 63 60 57 54 50 45 41 43 43 43 46 44 40 37 36 36 35 34 29 23 19 14 4 349 338 324 317 318 311 298 289 287 281 254 247 226 212 211 197 193 203 219 233 235 238 241
178 188 185 186 203 202 180 167 173 180 187 196 189 182 187 180 183 196 192 197 208 194 156 160 187 210 160 121 128 142 131 109 110 111 106 99 88 80 71 65 62 57 55 51 46 42 37 36 36 37 39 39 37 35 34 33 32 31 27 22 18 13 7 356 342 332 322 314 309 305 300 290 268 235 228 220 212 209 201 195 201 221 232 226 225 228
183 188 186 186 192 202 199 187 179 182 191 200 191 185 190 182 182 195 191 194 198 157 130 163 188 183 133 119 125 125 116 110 107 98 95 92 86 82 74 68 63 56 53 48 44 41 37 34 32 32 32 32 32 31 30 29 27 27 23 18 13 8 4 360 350 340 328 317 312 307 302 294 278 252 226 216 212 210 210 203 200 209 220 224 225 223
186 187 188 192 186 190 204 203 186 182 189 199 200 194 197 194 186 192 196 197 192 155 129 163 189 177 156 131 115 115 115 112 105 96 94 90 88 88 78 69 63 57 53 50 48 45 41 38 34 32 29 27 26 25 24 24 21 20 16 11 6 2 357 354 349 343 333 323 314 305 299 292 284 274 249 229 217 211 211 212 210 208 213 222 225 224
195 192 179 191 193 182 197 207 190 185 189 196 208 205 204 205 189 177 211 196 170 151 134 153 160 104 124 118 114 125 124 112 104 101 100 92 91 91 77 66 61 57 56 54 51 48 44 41 37 34 29 25 23 22 20 19 17 15 11 7 3 359 355 350 344 339 334 328 320 311 300 291 284 275 262 247 230 216 213 215 218 218 220 225 226 225
194 182 163 177 194 189 196 200 190 195 191 179 205 205 200 219 192 157 107 84 147 166 150 154 139 108 129 135 137 147 133 122 119 107 102 98 95 90 74 64 61 60 59 55 51 48 43 40 37 32 29 27 22 20 19 17 15 12 8 5 2 360 356 350 343 336 332 329 325 320 311 301 289 269 259 258 249 235 228 223 223 227 228 226 223 220
194 171 158 173 184 185 195 195 189 205 202 181 199 188 135 235 194 177 173 158 183 187 163 175 167 152 169 159 152 161 147 140 141 120 110 105 93 84 74 67 64 62 58 52 48 46 43 37 32 27 25 26 24 21 18 16 14 12 9 5 2 359 356 350 344 338 334 330 326 325 322 314 301 282 267 267 264 254 247 241 238 240 238 230 224 222
203 179 160 182 183 165 182 193 188 203 216 214 200 178 168 186 183 192 196 184 194 187 156 176 173 171 190 166 159 169 159 153 154 138 125 108 92 86 79 73 66 62 56 49 44 41 37 30 25 22 18 19 20 20 18 16 14 12 9 6 1 356 351 347 343 339 336 333 328 326 325 320 312 299 281 270 268 264 262 258 252 249 245 236 230 230
207 207 165 182 179 161 173 196 191 185 200 220 202 181 196 206 187 192 198 197 201 187 161 173 178 190 196 163 166 169 156 155 155 142 130 108 96 95 87 80 69 61 56 48 43 35 27 23 23 23 18 15 17 17 17 17 15 11 7 3 359 354 350 346 342 339 337 334 331 329 328 323 317 308 294 277 269 269 272 270 261 253 247 242 237 235
199 215 170 163 166 171 180 196 198 184 181 200 198 186 190 196 186 185 191 223 216 195 175 179 186 183 143 143 164 160 152 157 153 140 134 116 108 103 90 88 77 65 61 52 44 33 25 25 26 25 22 20 18 16 15 16 16 11 7 3 358 354 352 348 344 341 338 334 332 332 332 330 324 314 304 293 282 279 280 278 269 260 253 247 242 241
198 204 171 159 174 189 183 178 197 192 186 188 194 194 189 186 186 178 175 204 216 204 185 186 185 150 75 82 162 155 155 157 147 138 134 122 116 108 94 90 78 68 64 57 48 39 35 33 31 29 25 19 14 11 11 16 17 12 9 4 358 355 353 350 347 343 339 335 333 334 334 336 338 330 321 313 304 297 296 295 285 272 263 255 249 246
200 207 175 168 177 174 138 96 25 212 194 193 199 198 188 188 198 193 183 181 192 199 177 194 197 139 50 3 144 146 149 145 141 137 130 121 115 109 101 90 79 75 70 63 54 46 43 39 35 31 23 14 9 7 9 16 19 14 10 4 358 356 355 352 349 345 341 337 335 337 338 340 345 345 340 334 325 316 311 306 295 283 274 266 257 250
163 202 180 171 167 132 95 101 130 195 200 199 198 194 190 190 198 206 194 174 182 193 180 197 203 148 89 74 115 125 126 128 134 132 125 121 116 109 104 92 85 83 76 67 58 52 48 42 37 31 19 10 8 6 6 11 16 15 11 5 1 359 357 356 353 347 343 340 338 340 343 344 346 349 349 346 336 327 318 307 299 292 283 275 268 259
189 194 180 173 167 153 148 159 172 190 201 199 178 172 193 185 183 190 181 176 190 197 195 206 194 139 125 120 117 119 121 121 123 123 119 119 117 111 105 97 91 86 77 68 59 54 49 42 34 26 18 12 8 6 4 5 10 14 11 7 5 1 358 358 357 352 348 344 342 344 346 347 347 348 349 349 345 334 321 310 303 293 282 274 269 263
168 186 192 189 182 179 179 175 173 180 183 177 148 140 143 178 181 177 171 189 196 184 201 219 159 118 128 129 126 125 123 120 119 117 113 113 115 112 106 100 93 86 77 67 59 56 50 38 25 21 19 13 8 5 4 2 4 10 12 10 10 6 1 360 360 358 355 352 350 350 350 351 349 347 347 348 347 340 324 310 300 291 281 270 265 264
122 51 26 122 171 172 163 135 112 163 166 158 148 143 127 125 180 191 195 203 181 169 199 190 133 135 148 143 136 133 126 125 126 119 113 114 114 108 104 100 94 90 80 68 64 60 51 32 19 18 16 12 8 4 2 0 360 5 10 10 10 8 4 2 2 2 2 359 357 355 354 354 351 348 347 345 342 337 324 310 299 292 281 268 264 263
144 98 47 55 74 79 80 80 86 133 145 142 138 135 126 104 160 195 195 174 156 172 188 139 134 145 158 151 142 137 131 127 125 119 117 117 113 109 107 101 97 92 84 75 68 57 42 23 16 16 14 11 8 3 1 0 358 0 3 5 6 6 5 4 4 5 6 4 1 358 356 354 352 349 347 345 342 337 328 317 304 295 286 273 265 260
138 103 74 84 85 74 66 78 92 100 101 104 110 116 117 103 127 154 128 58 154 182 157 136 136 141 147 146 137 132 129 123 117 116 117 114 111 111 107 100 96 90 83 78 66 49 30 18 16 16 14 13 9 5 3 1 359 359 359 2 6 7 6 7 7 8 9 8 4 360 357 355 353 351 349 348 347 344 338 327 312 297 290 281 272 265
93 98 119 110 91 74 66 76 92 103 101 91 85 89 97 91 85 94 83 68 85 92 104 120 118 111 123 130 121 118 119 115 114 115 113 110 109 110 106 100 95 87 81 74 58 41 28 23 19 16 18 17 10 7 5 1 1 360 358 1 6 8 8 8 9 9 11 10 5 2 360 358 355 353 352 352 350 349 346 340 326 307 295 287 279 271
24 136 148 122 89 74 71 81 96 103 100 90 78 71 84 89 79 80 83 77 82 94 107 114 109 99 106 114 111 113 114 112 115 115 110 108 110 111 108 103 98 88 80 67 49 40 34 28 21 17 18 15 9 7 4 0 1 2 1 1 3 3 2 5 10 10 11 11 7 5 3 360 357 356 355 354 353 352 350 347 343 333 318 303 292 280
117 139 177 187 111 90 86 103 109 107 99 88 73 59 65 83 79 74 71 48 89 123 126 123 122 126 129 121 116 116 116 114 114 111 107 108 113 112 108 105 99 91 82 65 49 43 38 32 25 18 13 8 7 7 3 0 2 3 3 2 0 359 359 5 11 11 11 11 9 9 6 1 359 360 358 357 356 355 354 352 352 350 345 332 316 304
131 140 180 197 131 114 137 133 125 132 125 97 62 42 48 86 98 87 76 70 99 131 136 131 130 132 133 129 121 117 116 112 107 108 108 112 113 108 105 105 99 92 85 71 55 47 40 35 29 20 10 6 6 5 2 3 4 3 2 2 2 3 3 8 12 12 11 10 8 9 8 4 2 2 2 1 360 359 359 358 358 358 357 351 337 322
141 146 164 172 130 137 153 153 172 178 158 113 18 348 23 91 107 98 86 79 78 88 91 96 116 128 131 128 123 119 114 106 102 102 104 111 115 108 105 103 97 92 88 74 58 47 39 35 30 22 14 10 9 7 7 9 7 5 5 6 7 10 10 11 14 14 12 10 8 8 8 7 7 6 5 4 3 4 5 4 4 3 2 1 356 348
146 144 137 123 119 134 149 167 188 179 156 23 292 140 88 98 106 95 80 70 75 94 105 110 119 125 121 117 118 115 109 102 96 92 92 100 109 109 106 99 92 92 88 73 58 49 42 34 28 24 20 18 19 19 18 15 12 12 14 12 13 15 15 13 15 16 14 12 9 8 7 8 10 10 9 8 8 9 9 8 7 6 6 8 10 11
150 142 123 106 114 133 154 179 176 146 119 109 123 122 119 123 122 103 75 61 83 113 121 120 119 117 115 115 115 113 111 105 92 82 84 90 95 100 100 94 89 89 86 78 67 57 49 39 32 31 32 33 31 26 23 21 17 18 19 18 19 20 19 17 19 19 17 13 11 9 8 9 10 12 13 12 11 12 11 11 11 10 10 12 16 21
154 148 132 115 126 151 135 113 111 133 156 160 156 160 149 134 130 115 91 76 97 123 128 126 123 122 122 122 122 124 122 108 89 75 76 85 91 94 93 91 91 92 90 86 79 68 58 50 45 44 43 41 34 27 26 26 24 25 25 24 25 25 22 22 22 21 19 16 14 12 10 9 11 13 15 14 14 14 12 12 13 13 15 16 19 23
117 152 150 135 162 185 137 118 132 162 177 171 165 168 163 48 24 112 114 108 123 138 136 132 128 128 130 132 136 143 138 105 87 89 93 97 99 97 94 94 95 93 90 85 77 69 61 54 52 49 46 43 36 32 32 31 29 31 30 28 27 26 24 24 23 22 21 18 16 15 13 12 13 16 18 18 17 16 15 14 15 17 20 22 24 26
75 82 146 136 145 175 168 159 160 150 107 139 149 152 157 172 179 165 149 134 143 149 145 138 134 136 139 140 145 158 159 116 112 132 131 116 108 102 101 100 97 92 85 78 73 68 61 56 55 51 46 43 38 35 34 33 33 33 31 30 28 25 24 22 20 21 22 21 20 20 19 18 16 19 23 24 23 21 20 19 21 23 27 29 29 31
89 88 143 148 150 169 178 164 133 85 67 132 144 145 149 157 179 201 206 160 151 153 150 143 140 140 142 143 146 162 168 135 139 144 136 123 112 105 102 101 97 92 87 82 77 74 68 61 57 53 47 43 40 37 35 36 37 37 34 32 29 26 24 20 18 21 25 26 27 28 28 26 23 25 27 27 29 30 28 27 27 30 34 35 36 38
93 75 106 154 150 158 168 145 106 77 102 143 142 138 147 170 201 216 192 132 143 148 145 142 140 139 143 146 144 118 80 105 124 131 127 120 113 107 105 103 99 94 89 86 82 78 73 65 59 55 51 47 46 44 41 40 40 39 37 34 31 29 25 21 20 25 29 32 35 37 39 39 41 46 44 37 36 38 38 38 37 36 37 37 39 41
112 106 125 140 139 147 157 144 120 94 119 151 144 134 160 207 203 137 105 125 139 141 139 138 136 135 137 130 119 109 101 108 120 125 124 119 114 113 112 110 105 98 92 88 83 79 75 69 64 60 57 54 52 51 47 46 44 42 38 36 33 30 27 24 25 29 32 36 40 43 42 41 47 55 56 51 46 43 41 42 41 40 41 41 41 43
43 164 148 114 89 146 154 152 151 124 135 157 156 145 165 311 107 119 122 128 133 133 132 130 126 129 130 119 114 116 115 118 122 123 121 119 118 118 118 113 108 102 94 89 83 78 76 73 69 66 62 60 57 54 51 48 47 43 40 37 33 30 30 30 30 31 34 37 40 42 41 37 42 51 56 55 51 44 40 41 40 39 41 40 39 40
360 317 151 104 2 234 165 137 107 107 126 145 152 116 88 92 121 131 128 125 128 130 127 122 122 128 127 121 120 121 121 122 123 122 122 123 124 124 120 113 106 101 96 90 84 80 79 77 74 72 68 64 60 56 51 47 44 41 39 37 32 31 33 34 34 36 37 38 39 40 41 40 40 43 49 53 52 44 37 38 39 37 37 37 36 37
35 25 74 75 50 46 80 92 105 109 105 98 81 88 103 113 124 129 126 125 128 127 121 122 127 128 125 123 124 124 124 124 123 124 124 124 123 121 115 110 106 101 99 95 89 85 83 79 78 76 71 65 60 55 50 45 41 39 37 34 32 32 34 35 36 38 39 40 40 40 41 42 41 39 42 47 49 43 35 33 36 35 34 35 35 35
78 63 62 94 104 88 71 83 107 103 92 89 87 98 112 120 124 125 125 126 128 128 128 130 130 129 128 128 127 125 125 125 124 124 124 122 121 119 115 111 108 104 103 100 95 90 85 81 79 74 69 64 58 53 50 45 42 39 35 32 33 35 36 36 37 38 38 39 41 40 40 40 38 37 38 39 42 41 37 37 39 37 34 34 34 34
113 101 96 125 142 136 90 94 104 99 99 102 102 107 116 122 123 124 127 128 129 130 131 131 130 130 130 129 127 126 127 128 127 126 127 126 123 121 118 114 110 106 104 100 96 93 86 80 77 71 67 63 57 52 50 46 43 40 35 33 35 36 37 38 38 37 36 36 37 37 38 38 37 37 38 37 37 37 36 36 38 37 33 30 27 27
142 154 133 123 127 112 102 112 108 98 103 111 112 117 123 121 119 119 122 125 126 126 127 128 129 130 129 129 129 128 129 130 129 128 128 126 123 122 119 115 111 108 104 99 95 90 83 78 75 71 67 63 56 52 49 46 43 41 38 35 36 37 38 38 37 38 38 36 35 35 34 36 37 39 42 42 41 39 35 35 38 40 36 32 32 32
141 156 135 115 111 99 102 123 120 102 101 109 114 119 123 121 121 122 121 123 125 126 127 128 128 130 131 130 131 130 129 129 129 129 128 126 125 124 120 116 114 109 104 100 94 88 82 78 76 73 68 63 57 53 50 48 45 42 39 38 36 36 38 40 39 40 39 38 37 36 35 36 36 36 38 43 48 48 45 42 43 48 47 44 43 44
156 147 127 122 131 136 145 155 148 126 117 122 121 122 125 124 125 125 124 125 126 128 129 129 127 127 128 130 131 132 129 129 130 129 127 125 124 123 121 119 115 109 105 101 95 90 85 79 76 73 68 64 60 55 52 49 47 43 41 39 37 36 37 39 41 42 41 40 38 36 36 39 39 37 36 37 45 56 57 52 49 50 52 52 50 48
155 148 147 145 144 148 153 157 152 128 123 128 126 124 126 128 128 127 127 127 127 129 131 129 127 127 128 130 132 130 127 128 130 129 125 124 124 123 121 119 115 109 106 101 95 91 87 80 75 70 64 61 61 58 55 51 47 45 43 40 39 39 39 40 41 41 41 41 38 32 33 39 40 38 38 37 37 42 53 60 60 56 51 48 48 48
Height
766 772 773 767 763 761 760 758 756 755 756 761 763 764 764 766 768 762 764 765 758 766 771 768 776 786 790 791 791 790 789 789 789 789 787 787 788 790 793 795 796 797 797 798 800 803 804 805 807 809 810 811 811 811 811 811 812 813 813 814 815 815 816 817 818 819 820 822 823 823 824 824 824 825 825 825 825 825 826 826 827 828 829 828 828 828
766 770 766 759 756 755 757 756 756 759 759 760 761 762 762 762 764 763 766 768 761 769 778 774 780 790 791 793 793 791 792 794 793 793 792 790 788 791 795 797 798 799 799 799 801 803 805 806 808 810 810 811 811 811 812 812 812 813 813 814 814 815 815 816 818 819 820 821 822 822 822 822 823 823 823 823 824 824 824 824 825 826 826 827 827 827
770 766 758 753 751 752 756 756 758 763 761 761 759 761 764 758 762 768 768 768 765 770 778 776 783 794 794 794 794 793 793 795 794 794 795 794 793 796 800 802 802 802 802 802 802 804 806 807 809 810 811 811 812 812 812 813 813 813 814 814 814 815 815 816 817 818 819 819 820 820 819 820 821 821 821 822 822 822 822 822 824 825 825 826 827 827
769 760 750 749 750 753 759 759 761 764 763 761 758 761 763 756 763 775 773 771 768 768 773 776 785 794 795 795 796 794 793 792 793 795 797 799 800 802 804 805 805 806 806 805 805 806 808 809 810 810 811 812 813 813 813 813 814 814 814 814 814 815 815 816 817 818 819 819 819 818 818 819 819 819 820 820 820 821 821 821 822 824 825 826 827 827
759 750 745 749 753 756 761 762 762 765 765 762 757 757 758 756 758 766 771 772 771 772 770 775 790 796 793 798 800 795 792 791 792 794 799 801 802 803 804 805 806 807 807 808 808 808 809 810 811 811 812 813 813 814 814 814 814 814 814 814 815 815 815 816 817 817 818 818 819 818 817 818 818 818 818 818 818 819 820 821 821 822 823 824 825 826
750 743 744 753 756 755 760 763 761 762 765 765 761 753 751 755 758 762 768 772 780 786 775 772 794 804 796 798 803 797 793 794 793 795 800 803 803 804 805 806 807 807 807 808 809 810 810 811 812 813 813 813 814 814 815 814 814 814 815 815 815 815 815 816 816 816 817 817 818 818 817 817 817 816 816 816 815 815 817 818 819 820 820 821 822 824
744 743 747 753 754 755 758 760 757 755 762 767 762 753 751 753 759 765 766 770 780 785 774 770 787 803 803 801 802 797 794 796 795 797 801 804 806 807 808 809 809 809 809 810 811 811 812 813 813 814 814 815 815 815 815 815 815 815 815 815 815 815 815 816 816 815 816 815 815 816 815 815 814 814 814 813 812 811 812 815 817 818 818 818 819 820
741 747 750 750 753 756 757 757 753 751 759 763 755 754 758 757 760 764 763 766 769 771 775 774 776 792 805 804 800 795 795 798 799 801 804 805 808 810 811 813 813 814 814 813 814 814 814 815 815 816 816 816 816 816 816 815 816 815 815 815 815 815 815 815 815 815 815 815 814 814 814 813 813 813 813 812 810 810 811 813 815 816 817 817 817 818
740 749 750 749 753 755 752 750 749 750 756 756 750 754 758 758 759 759 760 763 763 772 785 778 770 786 803 801 796 793 795 802 804 806 809 810 813 815 816 817 817 817 817 817 817 817 816 817 817 817 817 817 817 816 816 816 816 816 815 815 815 815 815 815 815 815 814 814 813 813 813 812 812 812 812 811 811 811 812 813 814 815 816 817 817 817
743 745 744 747 751 750 746 744 746 752 754 752 753 757 757 759 759 758 760 761 767 781 785 775 769 783 801 800 795 796 799 804 808 810 814 816 817 819 820 821 820 820 820 820 820 820 819 819 819 819 818 818 818 817 817 816 816 816 816 815 815 814 814 814 814 814 813 813 812 812 812 812 812 812 811 811 811 811 812 813 814 815 816 816 816 815
740 740 740 744 744 742 741 742 746 750 751 752 757 760 763 763 760 762 760 757 777 791 777 767 767 776 798 800 792 798 800 800 807 812 816 818 819 822 823 824 824 823 823 823 822 822 822 822 821 821 821 820 820 819 818 818 817 817 816 815 815 814 814 814 813 813 812 812 811 811 811 810 810 811 810 810 810 810 811 813 813 814 815 814 815 815
742 744 742 740 738 737 741 747 749 748 750 754 757 761 769 771 768 772 770 768 789 793 770 765 767 772 793 799 795 804 803 798 804 811 817 821 822 825 826 826 826 826 826 825 825 825 824 824 823 823 823 823 822 822 820 819 819 818 817 816 815 814 814 813 813 812 811 810 810 810 809 809 808 809 809 809 810 809 810 812 813 814 814 813 814 815
746 745 742 741 739 737 743 753 756 753 753 754 755 762 774 780 783 786 783 782 789 783 769 768 771 777 791 795 797 805 805 804 808 811 817 822 824 827 829 829 829 828 829 828 827 827 826 826 825 825 825 825 824 824 822 821 820 819 818 817 816 815 814 813 812 811 810 810 809 808 808 807 807 807 807 807 808 808 808 808 810 811 812 811 812 812
750 744 740 744 744 739 741 750 758 759 756 754 753 759 770 778 791 796 786 784 786 782 776 769 772 789 800 799 800 807 810 811 813 815 819 822 825 828 830 831 832 831 831 830 829 829 828 828 827 827 827 827 826 825 823 822 821 820 819 817 816 815 814 813 812 811 810 809 808 807 807 806 806 805 806 806 806 806 806 805 805 806 807 807 809 810
752 750 742 742 742 739 739 740 745 751 753 752 744 747 758 761 775 788 780 776 780 782 784 780 781 793 802 803 805 810 813 812 814 818 820 823 825 827 830 831 833 833 832 832 831 831 831 830 829 829 828 828 826 825 824 823 821 820 819 818 817 816 814 813 812 810 810 809 808 807 806 805 805 804 804 804 804 804 804 803 803 803 803 804 806 807
746 746 734 733 733 734 740 735 733 744 753 751 740 743 753 744 749 772 775 769 772 780 791 794 795 797 800 805 808 810 813 812 816 821 822 825 826 826 831 832 833 835 834 834 833 832 832 831 830 830 829 828 827 826 824 823 822 820 819 818 816 815 814 812 811 810 809 808 807 806 805 805 804 804 803 803 802 802 802 802 802 802 802 803 803 804
742 740 727 732 735 730 736 734 731 741 749 750 749 749 745 730 736 767 781 775 772 785 799 800 802 807 806 808 808 808 812 813 818 824 825 827 827 828 832 834 835 836 835 835 834 834 834 833 832 832 830 830 828 827 826 824 822 821 819 818 816 814 813 812 811 809 808 807 806 805 804 804 804 803 802 802 802 802 801 801 801 801 801 801 801 801
733 736 728 732 739 732 728 731 733 733 736 748 755 747 739 737 740 752 773 784 779 786 801 798 799 807 805 805 808 809 813 815 817 822 826 826 827 830 833 836 836 836 836 836 835 835 835 835 834 833 832 831 830 829 827 825 823 821 819 818 816 814 813 812 811 809 809 807 806 805 804 803 802 801 801 801 801 801 801 800 800 800 800 800 799 798
724 736 736 730 734 734 728 733 741 737 732 740 742 735 741 757 759 753 765 782 780 786 801 798 795 799 791 792 804 809 813 815 815 820 824 826 828 832 835 837 837 837 838 838 837 836 836 836 835 834 833 833 832 830 828 826 824 822 820 818 817 816 815 814 812 810 809 808 807 805 804 803 802 800 800 800 800 800 799 799 799 798 798 797 797 797
721 734 742 730 726 732 734 737 745 745 740 737 735 735 740 749 754 754 757 763 767 781 797 799 799 793 780 782 796 806 811 814 815 820 825 828 832 835 837 839 839 839 839 839 839 839 838 837 837 836 835 834 833 831 829 827 825 823 822 820 819 818 816 815 814 812 810 809 807 806 804 803 801 800 799 799 799 798 798 798 798 797 796 795 795 795
722 731 740 736 730 735 739 736 734 738 742 742 742 743 744 742 742 748 754 752 754 770 787 797 799 789 777 778 789 802 810 811 813 820 827 831 834 837 839 840 840 839 840 840 841 841 840 839 838 837 837 835 834 832 830 828 826 825 823 822 820 819 817 816 814 813 811 809 808 806 804 803 801 800 798 797 797 797 797 797 797 796 796 795 794 794
722 725 733 738 738 736 733 727 725 728 730 736 741 739 740 743 743 755 768 759 749 757 769 780 789 792 789 783 786 798 806 807 810 818 827 832 835 838 840 840 840 840 841 842 843 843 842 840 840 839 838 836 834 832 831 829 827 826 825 823 822 820 819 817 815 814 812 810 809 807 804 803 801 799 798 797 796 796 796 796 796 796 795 794 793 793
719 720 727 734 734 731 730 729 730 729 724 727 732 729 731 737 740 753 768 763 756 758 758 762 777 797 803 792 788 797 802 804 810 817 825 832 836 840 841 840 841 842 843 844 844 844 843 842 841 840 839 837 835 833 831 830 829 828 826 825 824 822 820 818 816 815 813 811 809 807 805 803 801 800 799 797 797 796 796 796 795 795 794 793 792 791
721 721 725 732 731 730 732 732 731 730 728 729 729 725 727 732 733 737 743 748 758 763 761 766 779 799 811 804 799 804 805 809 815 818 826 834 838 841 841 842 843 844 845 846 845 844 844 843 843 841 840 837 835 833 832 831 830 829 828 827 825 823 821 819 817 816 814 812 810 808 806 804 801 800 799 798 797 796 795 795 795 794 793 792 791 791
723 722 724 736 745 747 746 744 741 737 733 733 734 733 730 728 730 734 735 742 755 759 758 764 777 797 812 813 811 813 814 818 822 824 828 834 838 842 843 844 845 845 847 847 846 846 845 845 844 842 840 838 836 834 832 831 831 830 829 828 826 824 822 820 818 816 814 812 810 808 806 804 802 800 799 798 796 795 794 794 794 793 793 792 790 790
725 730 727 733 746 753 753 750 745 738 735 737 740 741 738 733 732 737 743 751 759 762 756 757 777 805 816 816 818 819 820 826 829 829 831 835 840 842 844 846 847 847 848 848 848 848 846 846 845 842 841 839 837 836 834 833 832 831 830 829 827 825 823 821 819 817 815 813 810 808 806 804 802 800 799 797 795 794 794 793 793 792 791 790 789 788
727 739 737 733 735 739 743 742 735 730 734 742 745 744 743 742 737 738 746 751 753 761 759 756 777 807 816 816 821 824 825 830 832 832 835 839 841 844 846 847 847 848 849 849 849 849 847 847 845 843 842 840 839 837 836 835 834 832 832 830 828 827 825 823 821 818 816 813 811 809 807 805 803 801 799 797 795 794 793 792 792 790 789 789 787 786
725 740 746 744 742 742 743 743 736 731 735 741 746 747 748 749 744 742 749 748 744 755 765 766 779 799 809 815 821 825 828 831 832 834 837 841 843 845 846 847 848 848 849 850 851 850 849 848 846 845 843 842 840 839 838 837 835 834 833 831 830 828 826 824 822 820 817 815 812 810 807 805 803 801 800 797 795 794 793 791 790 789 788 787 786 785
723 742 751 748 749 750 746 742 738 738 743 746 749 751 752 751 748 749 756 753 746 751 761 769 780 793 806 816 822 826 830 832 835 837 839 842 844 845 847 848 849 850 850 851 852 851 851 849 847 846 845 843 842 841 840 839 837 835 834 833 832 830 828 826 823 821 819 816 814 812 809 807 804 802 800 797 795 793 792 790 789 787 786 785 784 783
724 746 752 746 751 755 751 747 744 744 750 754 755 756 756 755 754 757 761 757 753 756 761 771 787 802 813 821 826 831 833 835 838 841 841 844 846 847 848 850 851 852 852 852 853 852 852 851 849 848 846 845 844 843 842 840 838 837 835 834 833 831 829 827 825 823 821 818 816 814 811 809 805 803 800 798 796 793 791 790 788 786 785 784 783 782
729 747 751 744 752 760 757 753 751 748 753 759 763 763 760 761 764 765 767 764 762 769 778 787 803 820 827 828 832 836 837 838 841 843 844 846 848 849 851 852 853 854 854 854 854 854 853 852 851 850 848 848 846 845 843 842 840 839 837 835 834 832 831 829 827 824 822 820 818 815 813 810 807 804 802 799 797 794 792 790 788 786 784 783 782 781
729 747 755 746 750 764 763 757 756 754 757 766 775 777 771 771 775 776 777 775 772 779 790 793 803 822 832 833 835 838 839 842 844 845 847 849 851 852 853 853 855 855 855 856 856 854 854 853 853 852 851 850 848 847 845 843 841 840 838 837 835 833 832 830 828 826 823 821 819 817 815 812 809 806 803 800 798 796 793 791 788 786 784 782 781 780
729 745 751 739 746 766 764 757 758 754 753 767 784 791 785 779 781 784 783 780 777 780 786 787 798 820 831 832 836 841 842 845 847 848 850 852 853 854 854 855 856 856 857 857 856 856 856 855 854 854 853 852 850 848 847 845 843 841 840 838 836 835 833 831 829 827 825 823 821 818 816 813 810 808 805 802 800 797 795 792 789 786 784 782 781 779
730 737 737 729 744 765 764 760 761 752 756 780 797 797 790 782 784 791 792 790 787 787 790 795 809 825 830 831 837 842 845 848 850 851 852 854 855 856 856 857 857 858 858 858 858 858 857 857 857 856 855 853 851 850 848 846 844 843 841 839 838 836 834 832 830 828 826 824 822 820 818 815 813 810 807 804 802 799 797 794 791 789 786 784 782 780
731 732 731 730 742 759 762 760 760 760 776 798 801 792 789 788 790 798 803 801 799 800 805 811 820 827 830 836 841 844 848 851 852 855 856 856 856 857 858 859 859 859 860 859 860 860 859 859 858 857 856 854 852 851 849 847 846 844 842 841 839 837 835 833 831 830 827 825 823 821 819 817 814 812 809 807 804 802 800 797 795 792 790 787 785 783
726 728 731 734 742 755 760 757 764 781 798 804 799 791 791 792 792 796 807 812 809 807 812 818 825 831 836 842 845 847 850 852 854 857 858 858 858 859 859 860 861 861 861 861 861 861 861 860 860 858 857 855 853 852 850 849 847 845 843 842 840 838 836 835 833 831 829 827 825 823 821 818 816 814 812 809 807 805 802 800 797 795 793 791 788 786
720 724 730 740 747 749 755 766 783 796 799 798 799 794 788 789 786 785 803 820 817 812 817 824 830 835 839 843 846 848 848 849 855 860 861 860 861 860 860 861 862 862 862 862 862 862 861 861 860 860 858 857 855 854 852 850 849 847 845 843 841 839 838 836 835 833 831 829 828 825 823 821 819 816 814 812 809 807 805 802 800 798 796 794 791 789
720 721 724 739 750 745 749 769 783 782 779 784 792 790 786 789 788 783 796 818 822 817 820 826 831 836 840 842 846 846 843 845 856 863 862 862 862 861 861 862 863 863 863 863 863 863 862 862 861 860 859 858 856 855 853 852 851 849 847 845 843 841 839 838 836 835 833 831 830 828 826 823 821 819 817 814 812 810 807 805 803 801 799 797 795 793
724 722 720 733 748 746 744 754 761 767 775 781 786 789 789 789 789 785 788 806 822 823 821 825 831 835 837 839 843 843 839 844 858 864 862 862 862 862 863 863 864 864 864 864 864 864 863 863 862 861 860 858 857 856 854 854 852 851 849 847 845 844 841 840 838 837 835 834 832 830 828 825 823 821 819 817 815 813 811 808 806 805 802 800 799 797
730 729 727 734 744 745 744 748 757 773 787 787 785 788 788 788 791 787 782 796 818 824 822 825 830 832 835 838 841 841 836 839 853 860 860 862 863 863 864 865 865 865 865 865 865 864 864 864 862 862 861 859 859 857 856 855 854 852 851 849 848 846 844 843 841 839 838 836 834 832 830 828 825 823 821 820 818 816 814 812 810 808 806 804 803 802
741 740 736 737 743 746 747 751 763 781 791 790 787 788 789 790 790 785 783 796 815 822 824 827 829 832 835 837 840 842 839 839 848 856 859 862 863 864 866 866 866 866 866 866 866 865 864 864 863 862 861 860 860 859 858 857 855 854 853 851 849 848 846 845 843 841 840 838 836 835 833 830 828 825 823 822 821 820 818 816 814 812 810 809 807 805
747 748 744 743 745 747 749 753 765 781 792 791 789 790 792 789 787 789 797 805 812 819 824 828 830 833 837 838 841 845 846 847 852 856 859 862 864 866 867 867 867 867 867 866 866 865 865 865 864 864 863 862 862 860 859 858 857 856 855 853 851 850 849 847 845 844 842 840 838 837 835 833 830 828 826 824 823 823 821 820 819 817 815 813 811 809
754 751 747 752 757 752 750 757 766 777 788 791 789 790 792 791 793 801 807 809 812 818 824 828 833 836 838 842 844 847 849 852 855 858 861 864 866 867 867 867 867 867 867 867 867 866 865 866 865 865 865 864 863 862 861 860 859 857 856 855 853 852 850 849 847 846 844 842 841 839 838 836 834 831 829 827 826 826 825 823 822 820 819 817 815 813
765 757 748 759 769 758 753 767 780 785 789 790 790 791 794 796 799 803 806 811 817 823 826 831 837 838 840 843 846 849 852 855 858 861 863 865 867 867 867 868 867 868 868 868 868 867 867 867 867 866 866 866 865 864 863 861 860 859 857 856 855 854 852 851 849 848 846 845 843 842 840 839 837 835 833 830 829 828 827 826 825 823 822 820 818 816
770 766 759 769 783 777 772 785 798 797 794 794 795 797 799 801 801 803 807 813 819 825 829 833 838 840 843 845 848 851 855 856 859 862 864 865 867 868 868 868 869 869 869 869 869 869 868 868 868 867 867 866 865 864 863 862 861 860 859 858 857 855 854 852 851 849 848 847 846 844 843 842 840 839 837 834 832 831 830 829 828 826 824 822 821 820
776 773 768 776 789 792 793 800 803 800 799 800 801 802 803 804 804 805 809 814 818 824 830 833 837 841 844 846 849 853 856 858 861 863 864 866 867 868 869 870 870 870 870 870 870 870 869 868 868 867 867 867 866 865 864 864 862 861 860 859 858 857 856 854 853 852 850 849 848 847 845 844 843 841 840 838 836 835 834 832 830 829 827 825 824 823
779 774 771 776 781 785 795 806 806 803 805 805 804 806 807 806 807 809 811 816 820 824 829 833 837 841 844 848 851 853 856 859 860 862 865 866 867 868 869 869 870 870 870 870 870 870 870 869 869 868 868 868 867 866 866 864 863 862 862 861 859 859 857 856 855 854 852 851 850 848 847 846 845 844 842 841 839 838 836 835 834 832 830 828 827 826
773 772 772 777 781 787 800 810 809 806 808 807 806 809 809 809 812 814 815 819 823 827 832 836 840 843 846 849 852 854 856 858 860 862 864 865 867 868 869 869 870 870 871 871 871 871 870 870 869 870 869 869 868 868 867 866 865 864 863 862 861 860 859 858 856 855 854 853 852 851 850 848 847 846 845 844 843 841 839 838 837 836 835 834 832 830
769 771 773 782 795 803 808 812 811 810 813 813 810 811 812 813 816 819 821 824 828 831 835 839 842 845 847 849 852 854 856 859 861 862 863 865 867 868 869 870 870 871 871 872 872 872 871 871 871 871 870 870 869 869 868 867 866 865 864 864 863 861 860 859 858 856 855 855 854 853 852 851 849 848 847 846 846 845 844 842 841 840 839 838 836 835
768 771 778 789 799 803 803 805 805 805 812 817 816 815 817 818 820 822 824 827 831 833 836 839 842 846 849 851 853 854 856 858 861 862 864 865 867 868 869 870 871 871 872 872 872 873 873 872 872 872 871 871 870 870 869 869 868 867 866 865 864 863 861 859 858 857 857 857 856 855 853 852 851 851 849 848 847 846 846 845 844 843 842 841 840 839
772 774 778 780 783 788 794 800 799 800 809 818 818 818 820 821 822 824 826 828 832 836 837 839 842 846 850 852 854 855 857 859 862 863 865 867 868 869 870 870 871 872 872 872 873 873 873 873 873 873 872 871 871 871 871 870 869 868 868 867 866 864 863 861 860 859 858 858 858 857 855 854 853 853 851 850 849 848 847 847 846 846 845 844 843 841